Time,TemperatureF,DewpointF,PressureIn,WindDirection,WindDirectionDegrees,WindSpeedMPH,WindSpeedGustMPH,Humidity,HourlyPrecipIn,Conditions,Clouds,dailyrainin,SoftwareType,DateUTC
2013-07-24 00:00:00,65.0,26.0,-100.00,North,-999,-999.0,-999.0,23,-99.99,,,0.00,,2013-07-24 07:00:00,
2013-07-24 01:00:00,65.0,24.0,-100.00,South,178,2.0,4.0,21,-99.99,,,-99.99,,2013-07-24 08:00:00,
2013-07-24 02:00:00,61.0,28.0,-100.00,North,-999,-999.0,-999.0,28,-99.99,,,0.00,,2013-07-24 09:00:00,
2013-07-24 03:00:00,62.0,29.0,-100.00,South,182,3.0,4.0,29,-99.99,,,0.00,,2013-07-24 10:00:00,
2013-07-24 04:00:00,63.0,17.0,-100.00,South,179,3.0,4.0,16,-99.99,,,-99.99,,2013-07-24 11:00:00,
2013-07-24 05:00:00,62.0,11.0,-100.00,South,172,3.0,5.0,13,-99.99,,,0.00,,2013-07-24 12:00:00,
2013-07-24 06:00:00,62.0,20.0,-100.00,South,175,4.0,6.0,20,-99.99,,,0.00,,2013-07-24 13:00:00,
2013-07-24 07:00:00,63.0,15.0,-100.00,SW,226,3.0,5.0,15,-99.99,,,0.00,,2013-07-24 14:00:00,
2013-07-24 08:00:00,65.0,20.0,-100.00,SE,134,2.0,5.0,17,-99.99,,,-99.99,,2013-07-24 15:00:00,
2013-07-24 08:53:00,65.0,20.0,-100.00,SE,134,2.0,5.0,17,-99.99,,,-99.99,,2013-07-24 15:53:00,
2013-07-24 09:00:00,67.0,21.0,-100.00,WSW,242,2.0,4.0,17,-99.99,,,-99.99,,2013-07-24 16:00:00,
2013-07-24 09:53:00,67.0,21.0,-100.00,WSW,242,2.0,4.0,17,-99.99,,,-99.99,,2013-07-24 16:53:00,
2013-07-24 10:00:00,69.0,22.0,-100.00,SW,226,2.0,4.0,17,-99.99,,,-99.99,,2013-07-24 17:00:00,
2013-07-24 10:53:00,69.0,22.0,-100.00,SW,226,2.0,4.0,17,-99.99,,,-99.99,,2013-07-24 17:53:00,
2013-07-24 11:00:00,71.0,29.0,-100.00,SSW,211,3.0,5.0,21,-99.99,,,-99.99,,2013-07-24 18:00:00,
2013-07-24 11:52:00,71.0,29.0,-100.00,SSW,211,3.0,5.0,21,-99.99,,,-99.99,,2013-07-24 18:52:00,
2013-07-24 12:00:00,71.0,31.0,-100.00,West,259,2.0,4.0,22,-99.99,,,0.00,,2013-07-24 19:00:00,
2013-07-24 12:53:00,71.0,31.0,-100.00,West,259,2.0,4.0,22,-99.99,,,0.00,,2013-07-24 19:53:00,
2013-07-24 13:00:00,73.0,30.0,-100.00,NE,51,3.0,4.0,20,-99.99,,,0.00,,2013-07-24 20:00:00,
2013-07-24 13:53:00,73.0,30.0,-100.00,NE,51,3.0,4.0,20,-99.99,,,0.00,,2013-07-24 20:53:00,
2013-07-24 14:00:00,75.0,30.0,-100.00,NW,323,2.0,5.0,19,-99.99,,,0.00,,2013-07-24 21:00:00,
2013-07-24 15:00:00,78.0,28.0,-100.00,NNW,345,2.0,5.0,16,-99.99,,,0.00,,2013-07-24 22:00:00,
2013-07-24 16:00:00,77.0,27.0,-100.00,WNW,287,2.0,4.0,16,-99.99,,,-99.99,,2013-07-24 23:00:00,
2013-07-24 17:00:00,76.0,28.0,-100.00,WSW,251,3.0,4.0,17,-99.99,,,-99.99,,2013-07-25 00:00:00,
2013-07-24 18:00:00,75.0,30.0,-100.00,South,173,1.0,3.0,19,-99.99,,,-99.99,,2013-07-25 01:00:00,
2013-07-24 20:00:00,74.0,30.0,-100.00,WSW,252,1.0,2.0,20,-99.99,,,0.00,,2013-07-25 03:00:00,
2013-07-24 21:00:00,67.0,29.0,-100.00,SE,143,0.0,2.0,24,-99.99,,,0.00,,2013-07-25 04:00:00,
2013-07-24 23:00:00,67.0,24.0,-100.00,SE,145,3.0,5.0,20,-99.99,,,0.00,,2013-07-25 06:00:00,